QPF
0.00 0.00 0.00 0.00 0.00 0.00 0.00 0.00 0.00 0.09 0.05 0.01 0.01 0.00 0.03 0.00 0.00 0.00 0.04 0.03 0.01 0.00 0.00 0.00 0.00 0.00 0.00 0.00 0.00 0.00 0.00 0.00
0.00 0.00 0.00 0.00 0.00 0.00 0.00 0.00 0.00 0.09 0.19 0.08 0.07 0.00 0.10 0.03 0.00 0.00 0.00 0.02 0.01 0.00 0.00 0.00 0.00 0.00 0.00 0.00 0.00 0.00 0.00 0.00
0.00 0.00 0.00 0.00 0.00 0.00 0.00 0.00 0.00 0.01 0.08 0.05 0.05 0.00 0.00 0.01 0.00 0.00 0.00 0.00 0.02 0.00 0.00 0.00 0.00 0.00 0.00 0.00 0.00 0.00 0.00 0.00
0.00 0.00 0.00 0.00 0.00 0.00 0.00 0.00 0.00 0.00 0.01 0.23 0.43 0.35 0.15 0.27 0.15 0.02 0.00 0.00 0.02 0.01 0.00 0.00 0.00 0.00 0.00 0.00 0.00 0.00 0.00 0.00
0.01 0.01 0.01 0.00 0.00 0.00 0.01 0.00 0.00 0.00 0.00 0.10 0.17 0.29 0.17 0.15 0.16 0.16 0.03 0.00 0.00 0.00 0.00 0.00 0.00 0.00 0.00 0.00 0.00 0.00 0.00 0.00
0.01 0.01 0.01 0.02 0.01 0.00 0.00 0.00 0.00 0.00 0.00 0.01 0.05 0.29 0.18 0.07 0.14 0.20 0.11 0.01 0.00 0.00 0.00 0.08 0.03 0.00 0.00 0.00 0.00 0.00 0.00 0.00
0.00 0.01 0.01 0.03 0.03 0.00 0.00 0.00 0.00 0.00 0.00 0.01 0.13 0.12 0.16 0.19 0.10 0.11 0.19 0.10 0.00 0.00 0.00 0.01 0.01 0.00 0.00 0.02 0.03 0.04 0.02 0.00
0.00 0.00 0.00 0.00 0.02 0.02 0.01 0.01 0.01 0.00 0.00 0.02 0.09 0.07 0.12 0.11 0.11 0.10 0.08 0.19 0.05 0.00 0.01 0.00 0.00 0.04 0.01 0.01 0.03 0.05 0.05 0.03
0.00 0.00 0.00 0.00 0.00 0.01 0.02 0.03 0.04 0.02 0.02 0.03 0.17 0.25 0.29 0.39 0.40 0.26 0.17 0.09 0.07 0.00 0.00 0.00 0.03 0.07 0.04 0.04 0.05 0.04 0.03 0.02
0.00 0.00 0.00 0.00 0.00 0.00 0.00 0.02 0.06 0.08 0.04 0.04 0.16 0.34 0.34 0.28 0.30 0.50 0.56 0.38 0.23 0.05 0.00 0.00 0.07 0.10 0.06 0.05 0.03 0.04 0.03 0.01
0.00 0.00 0.00 0.00 0.00 0.00 0.00 0.00 0.02 0.05 0.05 0.03 0.02 0.11 0.19 0.20 0.16 0.18 0.19 0.25 0.40 0.37 0.08 0.00 0.01 0.09 0.02 0.02 0.02 0.03 0.03 0.02
0.00 0.00 0.00 0.00 0.00 0.00 0.00 0.00 0.00 0.00 0.01 0.01 0.03 0.02 0.04 0.13 0.14 0.08 0.09 0.13 0.16 0.27 0.35 0.16 0.08 0.01 0.03 0.01 0.02 0.04 0.03 0.03
0.01 0.00 0.00 0.00 0.00 0.00 0.00 0.00 0.00 0.00 0.00 0.00 0.00 0.00 0.00 0.01 0.06 0.06 0.06 0.06 0.08 0.18 0.28 0.20 0.10 0.03 0.01 0.01 0.01 0.02 0.01 0.02
0.00 0.00 0.00 0.01 0.01 0.00 0.00 0.00 0.00 0.00 0.00 0.00 0.00 0.00 0.00 0.00 0.00 0.00 0.01 0.03 0.04 0.08 0.16 0.24 0.17 0.08 0.04 0.03 0.03 0.02 0.01 0.01
0.00 0.00 0.00 0.00 0.01 0.01 0.00 0.00 0.00 0.00 0.00 0.00 0.00 0.00 0.00 0.00 0.00 0.00 0.01 0.02 0.03 0.05 0.08 0.11 0.15 0.14 0.09 0.06 0.04 0.04 0.03 0.02
0.00 0.00 0.00 0.00 0.00 0.01 0.00 0.00 0.00 0.00 0.00 0.00 0.00 0.00 0.00 0.00 0.01 0.01 0.01 0.01 0.02 0.03 0.03 0.03 0.05 0.05 0.07 0.06 0.04 0.03 0.03 0.03
0.00 0.00 0.00 0.00 0.00 0.01 0.01 0.00 0.00 0.00 0.00 0.00 0.00 0.00 0.00 0.00 0.00 0.00 0.00 0.00 0.00 0.00 0.01 0.01 0.02 0.01 0.01 0.02 0.04 0.04 0.04 0.05
0.00 0.00 0.00 0.00 0.00 0.00 0.00 0.00 0.00 0.00 0.00 0.00 0.00 0.00 0.00 0.00 0.00 0.00 0.00 0.00 0.00 0.00 0.00 0.00 0.01 0.01 0.01 0.02 0.02 0.02 0.03 0.05
0.00 0.00 0.00 0.00 0.00 0.00 0.00 0.00 0.00 0.00 0.00 0.00 0.00 0.00 0.00 0.00 0.00 0.00 0.00 0.00 0.00 0.00 0.00 0.00 0.00 0.00 0.00 0.00 0.01 0.01 0.01 0.01
MSLP
1001.04 1000.42 999.92 999.50 999.20 999.21 998.95 998.96 999.38 1000.25 1001.58 1002.75 1003.53 1004.39 1004.47 1004.84 1005.15 1006.05 1006.97 1007.85 1008.70 1009.67 1010.74 1011.30 1012.03 1013.07 1013.96 1015.02 1015.49 1016.12 1016.69 1017.25
1002.13 1001.46 1000.38 1000.04 999.28 999.25 998.90 998.73 998.55 999.47 1000.72 1001.80 1002.77 1002.99 1003.78 1003.61 1004.34 1005.07 1005.92 1006.88 1007.76 1008.89 1009.84 1010.89 1011.46 1012.32 1013.01 1013.93 1014.95 1015.72 1016.48 1016.80
1005.40 1004.66 1003.23 1001.42 1000.32 999.96 999.48 999.49 998.31 998.11 999.28 1000.07 1001.39 1002.03 1002.59 1002.66 1003.23 1004.29 1004.94 1006.08 1006.89 1007.98 1008.79 1009.97 1010.77 1011.69 1012.73 1013.59 1014.21 1015.28 1016.18 1016.34
1008.33 1007.20 1006.46 1005.33 1004.42 1003.63 1001.65 999.21 998.28 997.35 997.94 998.87 1000.28 1001.32 1001.48 1002.01 1002.30 1003.12 1004.23 1005.22 1006.21 1007.23 1007.99 1009.00 1009.99 1010.96 1011.71 1012.67 1013.53 1014.09 1015.01 1015.82
1011.29 1009.54 1007.66 1007.09 1006.53 1005.38 1003.12 1001.11 999.05 997.37 996.78 997.68 998.76 999.97 999.69 1000.88 1001.79 1002.35 1002.75 1004.27 1005.06 1006.09 1006.97 1007.93 1009.12 1010.01 1010.88 1011.78 1012.85 1013.56 1013.97 1015.01
1014.24 1013.14 1011.96 1010.22 1008.77 1007.06 1004.58 1003.33 1000.19 999.04 998.24 996.15 997.26 999.02 999.72 1000.57 1001.07 1001.62 1002.24 1003.36 1004.18 1004.79 1005.75 1006.91 1008.06 1009.34 1009.92 1010.91 1012.02 1012.86 1013.67 1014.15
1015.64 1014.16 1012.95 1011.58 1010.33 1007.97 1005.80 1003.83 1002.75 1001.25 999.99 997.40 996.95 997.69 999.07 999.89 1000.17 1000.65 1001.61 1001.58 1003.42 1003.73 1004.84 1005.67 1006.91 1008.09 1009.26 1010.07 1011.02 1011.84 1012.73 1013.58
1015.96 1014.80 1013.57 1012.04 1010.53 1008.94 1006.52 1005.66 1004.00 1002.02 1000.54 998.11 998.71 996.79 997.71 998.83 999.57 999.69 1000.81 1001.34 1002.21 1003.09 1003.96 1004.69 1005.92 1007.20 1008.18 1009.31 1010.37 1011.31 1012.02 1012.84
1017.28 1016.12 1014.81 1013.55 1012.09 1009.91 1008.70 1007.05 1005.58 1004.54 1002.99 999.35 998.91 998.02 997.01 997.75 998.59 999.40 999.29 999.76 1001.12 1001.82 1002.49 1003.18 1004.63 1006.06 1007.23 1008.32 1009.55 1010.38 1011.31 1012.18
1017.96 1016.89 1015.79 1014.46 1013.04 1011.66 1010.24 1008.13 1006.71 1006.01 1004.47 1003.19 1001.02 999.66 999.56 998.11 997.92 998.25 998.69 998.49 1000.03 1001.17 1001.91 1002.11 1003.20 1004.94 1006.41 1007.50 1008.64 1009.93 1010.76 1011.24
1018.54 1017.88 1016.66 1015.26 1014.01 1012.55 1011.43 1010.64 1009.28 1008.58 1005.95 1004.87 1003.26 1003.03 1002.62 1001.39 1001.01 1000.30 1000.24 1000.39 997.95 999.76 1000.98 1002.09 1002.49 1003.77 1005.01 1006.41 1007.55 1008.70 1009.78 1010.46
1019.19 1018.44 1017.46 1016.29 1015.13 1014.10 1012.44 1011.20 1010.94 1008.42 1007.09 1006.72 1006.11 1003.72 1003.45 1003.53 1003.56 1002.96 1001.84 1000.37 1000.15 998.52 999.98 1001.25 1002.29 1003.46 1004.50 1005.42 1006.30 1007.39 1008.29 1009.08
1019.20 1018.68 1017.95 1016.59 1015.63 1014.88 1014.15 1012.56 1011.68 1009.49 1009.77 1006.59 1007.30 1007.54 1006.10 1004.82 1005.34 1004.61 1003.86 1004.07 1003.04 1002.74 1001.90 1001.61 1002.22 1002.95 1003.76 1004.44 1005.25 1005.93 1006.84 1007.60
1018.71 1018.32 1017.98 1017.21 1016.37 1015.67 1015.40 1013.61 1012.36 1011.23 1010.68 1008.91 1007.97 1007.27 1007.43 1007.23 1006.80 1006.51 1006.15 1005.85 1004.93 1004.07 1003.99 1003.67 1003.29 1002.72 1002.90 1003.59 1003.88 1004.52 1005.34 1005.98
1018.64 1018.19 1018.16 1017.81 1017.15 1016.23 1015.66 1014.00 1013.00 1012.36 1011.47 1010.32 1010.65 1008.77 1008.81 1008.34 1008.69 1008.37 1008.36 1008.06 1007.18 1006.47 1006.10 1005.82 1005.47 1003.90 1005.02 1002.73 1002.65 1003.46 1004.07 1004.68
1018.32 1018.00 1017.88 1017.97 1017.57 1016.65 1016.29 1015.36 1014.56 1013.93 1012.61 1011.15 1011.29 1011.44 1010.63 1009.75 1009.82 1009.54 1009.94 1009.04 1008.34 1007.88 1007.56 1007.44 1007.11 1007.21 1007.04 1006.24 1003.93 1002.69 1003.71 1004.14
1018.51 1018.11 1017.88 1017.69 1017.86 1017.49 1016.95 1016.21 1016.02 1014.80 1013.31 1013.75 1013.67 1012.83 1011.30 1012.15 1010.77 1010.60 1010.40 1010.28 1009.41 1009.42 1008.85 1009.28 1008.79 1007.81 1008.54 1004.87 1005.49 1003.93 1003.26 1003.82
1018.48 1018.16 1018.07 1017.72 1017.65 1017.92 1017.64 1016.94 1016.68 1015.84 1014.55 1014.39 1014.83 1014.01 1013.84 1012.66 1012.69 1012.22 1011.18 1011.91 1011.45 1009.92 1011.13 1010.54 1010.34 1009.44 1007.54 1006.24 1006.59 1005.82 1004.31 1003.28
1018.76 1018.34 1018.14 1018.04 1017.86 1017.92 1017.72 1017.41 1016.70 1016.38 1016.20 1015.90 1015.54 1014.72 1013.74 1014.72 1014.05 1013.31 1011.95 1011.16 1011.02 1011.75 1011.71 1010.81 1010.45 1010.86 1007.38 1006.77 1008.11 1008.47 1006.45 1005.26
Thickness
5666 5678 5688 5696 5705 5706 5718 5723 5722 5720 5719 5717 5713 5710 5715 5719 5721 5719 5713 5711 5707 5703 5697 5699 5698 5694 5693 5686 5689 5689 5688 5686
5641 5651 5668 5672 5684 5689 5698 5707 5715 5704 5704 5704 5701 5704 5707 5715 5717 5718 5713 5707 5706 5702 5698 5693 5696 5692 5694 5691 5685 5683 5682 5684
5582 5584 5603 5631 5651 5661 5674 5686 5698 5704 5698 5707 5701 5703 5705 5713 5715 5713 5713 5706 5704 5701 5699 5693 5695 5692 5687 5685 5687 5679 5677 5681
5536 5546 5553 5570 5582 5596 5621 5660 5680 5693 5695 5702 5698 5696 5698 5698 5703 5705 5703 5701 5699 5698 5698 5695 5693 5691 5687 5688 5687 5685 5679 5679
5492 5505 5518 5527 5540 5560 5592 5622 5644 5677 5689 5690 5691 5689 5693 5692 5695 5700 5695 5699 5698 5697 5698 5696 5692 5691 5687 5686 5686 5683 5681 5674
5458 5469 5476 5494 5505 5526 5561 5582 5622 5643 5655 5677 5693 5685 5689 5692 5690 5691 5691 5693 5693 5698 5698 5692 5691 5687 5687 5685 5682 5678 5676 5676
5439 5449 5461 5472 5485 5508 5530 5564 5588 5602 5623 5663 5681 5684 5683 5683 5685 5686 5678 5684 5687 5695 5692 5692 5691 5688 5686 5684 5683 5679 5675 5674
5420 5429 5439 5454 5469 5482 5511 5528 5559 5589 5613 5648 5651 5682 5684 5680 5682 5689 5681 5681 5685 5687 5689 5691 5688 5687 5686 5683 5678 5674 5674 5671
5401 5407 5416 5424 5439 5461 5477 5499 5529 5554 5578 5630 5637 5662 5679 5680 5682 5681 5689 5692 5686 5690 5691 5695 5690 5687 5685 5681 5676 5673 5669 5666
5390 5393 5398 5408 5420 5438 5455 5481 5506 5530 5559 5576 5596 5631 5641 5664 5676 5676 5682 5692 5681 5680 5682 5690 5690 5682 5677 5677 5672 5666 5662 5664
5386 5381 5389 5401 5411 5425 5440 5454 5476 5498 5536 5554 5572 5586 5600 5617 5631 5647 5651 5654 5671 5677 5678 5676 5679 5675 5675 5672 5670 5666 5660 5660
5384 5382 5384 5391 5401 5407 5428 5446 5458 5492 5515 5529 5537 5570 5582 5585 5598 5613 5622 5641 5639 5647 5673 5670 5667 5665 5666 5667 5666 5665 5661 5660
5388 5384 5383 5392 5399 5405 5412 5432 5450 5478 5485 5521 5523 5531 5555 5567 5574 5584 5594 5603 5618 5620 5634 5652 5656 5659 5660 5662 5662 5663 5661 5661
5398 5392 5389 5389 5396 5401 5402 5422 5441 5460 5470 5490 5508 5523 5531 5539 5550 5562 5571 5577 5590 5604 5610 5626 5629 5651 5656 5657 5662 5663 5663 5665
5399 5396 5389 5389 5392 5398 5399 5416 5432 5446 5461 5476 5482 5502 5510 5523 5524 5538 5547 5553 5567 5578 5587 5597 5608 5615 5624 5650 5658 5658 5661 5665
5407 5404 5397 5391 5392 5399 5399 5405 5419 5429 5448 5466 5470 5475 5490 5503 5508 5517 5523 5537 5547 5556 5566 5575 5583 5584 5590 5599 5634 5656 5655 5658
5410 5408 5405 5401 5394 5394 5398 5401 5404 5424 5438 5440 5447 5461 5479 5476 5494 5501 5509 5516 5530 5534 5546 5549 5558 5566 5565 5599 5609 5632 5646 5651
5409 5409 5406 5406 5402 5396 5395 5401 5403 5412 5424 5432 5433 5444 5452 5465 5471 5481 5495 5493 5498 5519 5514 5525 5533 5545 5569 5575 5582 5604 5626 5639
5405 5405 5403 5402 5403 5399 5399 5399 5404 5405 5410 5412 5418 5431 5444 5439 5447 5461 5477 5490 5492 5491 5496 5506 5518 5521 5553 5565 5562 5568 5592 5602